FW7807 Weather Reports


time (UTC)temp
F
wind
direction
speed
knots
gust
knots
rain 1hr
in
rain 24hr
in
rain mn
in
humidity
%
barometer
mb
20260507141540 65 126 6.1 11.3 0.00 0.00 0.00 81 1009.7
20260507140037 65 141 4.3 10.4 0.00 0.00 0.00 80 1009.8
20260507134549 65 188 5.2 11.3 0.00 0.00 0.00 78 1010.1
20260507133043 66 187 2.6 9.6 0.00 0.00 0.00 78 1010.2
20260507131539 65 109 7.0 11.3 0.00 0.00 0.00 77 1010.1
20260507130042 66 121 8.7 16.5 0.00 0.00 0.00 75 1010.3
20260507124538 67 105 11.3 19.1 0.00 0.00 0.00 72 1010.6
20260507123042 67 98 9.6 17.4 0.00 0.00 0.00 71 1010.6
20260507121540 67 96 11.3 16.5 0.00 0.00 0.00 70 1010.7
20260507120040 67 101 12.2 17.4 0.00 0.00 0.00 70 1010.8
20260507114545 67 86 13.0 17.4 0.00 0.00 0.00 72 1010.7
20260507113039 67 92 14.8 21.7 0.00 0.00 0.00 71 1010.6
20260507111548 67 117 11.3 15.6 0.00 0.00 0.00 71 1011.0
20260507110036 67 110 12.2 19.1 0.00 0.00 0.00 72 1011.0
20260507104536 67 93 13.9 20.0 0.00 0.00 0.00 73 1011.2
20260507103041 66 89 13.9 21.7 0.00 0.00 0.00 73 1011.2
20260507101538 66 111 14.8 20.0 0.00 0.00 0.00 74 1011.1
20260507100037 66 107 12.2 20.0 0.00 0.00 0.00 74 1011.3
20260507094541 66 122 11.3 16.5 0.00 0.00 0.00 74 1011.2
20260507093043 66 105 12.2 18.2 0.00 0.00 0.00 73 1011.5
20260507091538 66 103 9.6 15.6 0.00 0.00 0.00 72 1011.3
20260507090039 66 107 10.4 16.5 0.00 0.00 0.00 71 1011.3
20260507084541 66 81 10.4 17.4 0.00 0.00 0.00 71 1011.3
20260507083039 66 101 10.4 15.6 0.00 0.00 0.00 72 1011.4
20260507081538 66 74 10.4 14.8 0.00 0.00 0.00 73 1011.3
20260507080049 66 360 8.7 13.0 0.00 0.00 0.00 72 1011.4
20260507074540 65 75 8.7 12.2 0.00 0.00 0.00 72 1011.2
20260507073036 65 107 5.2 10.4 0.00 0.00 0.00 72 1011.2
20260507071536 65 96 4.3 9.6 0.00 0.00 0.00 72 1010.9
20260507070048 64 41 5.2 8.7 0.00 0.00 0.00 74 1010.7
20260507064546 63 64 5.2 8.7 0.00 0.00 0.00 76 1010.6
20260507063038 61 36 2.6 5.2 0.00 0.00 0.00 79 1010.7
20260507061538 59 58 0.9 3.5 0.00 0.00 0.00 81 1010.6
20260507060037 59 32 0.9 2.6 0.00 0.00 0.00 80 1010.7
20260507054540 58 0 0.0 3.5 0.00 0.00 0.00 81 1010.7
20260507053041 58 13 0.9 3.5 0.00 0.00 0.00 81 1010.7
20260507051541 58 5 0.9 3.5 0.00 0.00 0.00 80 1010.5
20260507050041 58 352 0.0 4.3 0.00 0.00 0.00 80 1010.4
20260507044538 58 0 0.0 1.7 0.00 0.00 0.00 80 1010.4
20260507043035 58 38 1.7 4.3 0.00 0.00 0.00 80 1010.3
20260507041552 59 21 1.7 4.3 0.00 0.00 0.00 79 1010.2
20260507040041 59 13 2.6 5.2 0.00 0.00 0.00 79 1010.2
20260507034538 59 28 1.7 4.3 0.00 0.00 0.00 78 1010.2
20260507033042 59 36 1.7 4.3 0.00 0.00 0.00 78 1010.0
20260507031536 60 74 1.7 3.5 0.00 0.00 0.00 78 1010.2
20260507030037 60 70 0.0 4.3 0.00 0.00 0.00 79 1010.3
20260507024542 60 51 2.6 4.3 0.00 0.00 0.00 79 1010.3
20260507023041 60 49 2.6 3.5 0.00 0.00 0.00 79 1010.3
20260507021539 61 44 0.9 2.6 0.00 0.00 0.00 79 1010.7
20260507020039 61 41 1.7 3.5 0.00 0.00 0.00 79 1010.7
20260507014550 61 44 2.6 4.3 0.00 0.00 0.00 79 1010.8
20260507013044 60 30 2.6 4.3 0.00 0.00 0.00 80 1010.8
20260507011539 60 65 1.7 5.2 0.00 0.00 0.00 80 1010.7
20260507010042 61 42 4.3 6.1 0.00 0.00 0.00 80 1010.7
20260507004540 61 58 4.3 6.1 0.00 0.00 0.00 80 1010.7
20260507003039 61 44 3.5 7.8 0.00 0.00 0.00 81 1010.9
20260507001555 61 34 4.3 8.7 0.00 0.00 0.00 81 1010.9
20260507000041 61 32 3.5 7.0 0.00 0.00 0.00 81 1011.1
20260506234541 61 57 5.2 7.8 0.00 0.00 0.00 82 1011.2
20260506233044 62 36 3.5 5.2 0.00 0.00 0.00 82 1011.3
20260506231544 62 38 3.5 5.2 0.00 0.00 0.00 81 1011.2
20260506230037 62 46 2.6 4.3 0.00 0.00 0.00 82 1011.4
20260506224535 62 44 2.6 5.2 0.00 0.00 0.00 82 1011.3
20260506223058 62 45 3.5 5.2 0.00 0.00 0.00 81 1011.4
20260506221539 63 40 1.7 3.5 0.00 0.00 0.00 81 1011.3
20260506220038 63 84 2.6 5.2 0.00 0.00 0.00 81 1011.4
20260506214540 63 88 3.5 5.2 0.00 0.00 0.00 81 1011.5
20260506213038 64 100 2.6 3.5 0.00 0.00 0.00 81 1011.6
20260506211545 64 96 2.6 5.2 0.00 0.00 0.00 81 1011.8
20260506210042 64 89 2.6 6.1 0.00 0.00 0.00 81 1011.7
20260506204538 64 105 4.3 6.1 0.00 0.00 0.00 81 1011.5
20260506203043 64 98 3.5 7.8 0.00 0.00 0.00 81 1011.5
20260506201537 64 88 4.3 7.8 0.00 0.00 0.00 80 1011.2
20260506200108 64 90 4.3 7.8 0.00 0.00 0.00 80 1011.2
20260506194542 64 96 4.3 9.6 0.00 0.00 0.00 80 1011.0
20260506193040 64 107 5.2 8.7 0.00 0.00 0.00 80 1010.9
20260506191538 64 105 7.0 9.6 0.00 0.00 0.00 79 1010.8
20260506190038 65 132 5.2 11.3 0.00 0.00 0.00 79 1010.4
20260506184535 65 105 7.0 10.4 0.00 0.00 0.00 78 1010.4
20260506183041 65 101 8.7 11.3 0.00 0.00 0.00 78 1010.3
20260506181542 65 109 5.2 14.8 0.00 0.00 0.00 77 1010.1
20260506180048 65 119 10.4 14.8 0.00 0.00 0.00 77 1010.1
20260506174538 66 124 7.0 13.9 0.00 0.00 0.00 76 1010.2
20260506173037 66 104 11.3 15.6 0.00 0.00 0.00 75 1010.3
20260506171547 66 173 8.7 14.8 0.00 0.00 0.00 74 1010.2
20260506170042 66 110 10.4 18.2 0.00 0.00 0.00 73 1010.1
20260506164539 67 108 10.4 18.2 0.00 0.00 0.00 73 1009.8
20260506163046 67 109 12.2 17.4 0.00 0.00 0.00 73 1009.7
20260506161549 67 106 11.3 18.2 0.00 0.00 0.00 72 1009.8
20260506160037 67 144 11.3 21.7 0.00 0.00 0.00 71 1009.9
20260506154537 67 111 13.0 20.9 0.00 0.00 0.00 70 1009.8
20260506153043 68 115 14.8 20.9 0.00 0.00 0.00 71 1009.8
20260506151540 68 130 12.2 20.9 0.00 0.00 0.00 71 1009.8
20260506150038 68 135 13.0 20.0 0.00 0.00 0.00 70 1009.8
20260506144538 68 107 14.8 22.6 0.00 0.00 0.00 69 1010.1
20260506143042 68 104 13.9 22.6 0.00 0.00 0.00 70 1010.2